• In Deutschland
  • Länderverzeichnis
  • Für 7 Tage
  • Wassertemperatur
  • Satellitenkarten
  • Wetterkarte
  • Widgets
  • user-avatar
    Anmelden

    Stündliche Wetter Vlotho

    Heute, 20 Oktober, Freitag

    Zeit Temperatur Niederschläge Wind Luftdruck Luftfeuchtigkeit
    00:00 +13°C° 0 mm 3 m/S 747 mmHg 79%
    01:00 +13°C° 0 mm 3 m/S 747 mmHg 78%
    02:00 +13°C° 0 mm 3 m/S 747 mmHg 77%
    03:00 +13°C° 0 mm 3 m/S 747 mmHg 76%
    04:00 +13°C° 0 mm 3 m/S 747 mmHg 74%
    05:00 +13°C° 0 mm 3 m/S 747 mmHg 72%
    06:00 +13°C° 0 mm 3 m/S 747 mmHg 70%
    07:00 +13°C° 0 mm 3 m/S 747 mmHg 68%
    08:00 +14°C° 0,4 mm 4 m/S 747 mmHg 71%
    09:00 +14°C° 0,4 mm 4 m/S 747 mmHg 75%
    10:00 +14°C° 0,4 mm 5 m/S 747 mmHg 79%
    11:00 +14°C° 0,5 mm 5 m/S 747 mmHg 80%
    12:00 +15°C° 0,5 mm 5 m/S 747 mmHg 82%
    13:00 +15°C° 0,5 mm 5 m/S 748 mmHg 83%
    14:00 +15°C° 0,2 mm 5 m/S 748 mmHg 81%
    15:00 +15°C° 0,2 mm 4 m/S 747 mmHg 78%
    16:00 +15°C° 0,2 mm 4 m/S 747 mmHg 75%
    17:00 +14°C° 0,1 mm 4 m/S 748 mmHg 77%
    18:00 +13°C° 0,1 mm 3 m/S 748 mmHg 79%
    19:00 +12°C° 0,1 mm 3 m/S 748 mmHg 81%
    20:00 +11°C° 0 mm 3 m/S 749 mmHg 82%
    21:00 +10°C° 0 mm 3 m/S 749 mmHg 83%
    22:00 +10°C° 0 mm 3 m/S 749 mmHg 84%
    23:00 +10°C° 0 mm 3 m/S 749 mmHg 85%

    Morgen, 21 Oktober, Samstag

    Zeit Temperatur Niederschläge Wind Luftdruck Luftfeuchtigkeit
    00:00 +9°C° 0 mm 3 m/S 750 mmHg 86%
    01:00 +9°C° 0 mm 3 m/S 750 mmHg 87%
    02:00 +9°C° 0 mm 3 m/S 749 mmHg 87%
    03:00 +9°C° 0 mm 3 m/S 749 mmHg 86%
    04:00 +9°C° 0 mm 3 m/S 749 mmHg 86%
    05:00 +9°C° 0 mm 3 m/S 749 mmHg 84%
    06:00 +10°C° 0 mm 3 m/S 749 mmHg 83%
    07:00 +10°C° 0 mm 3 m/S 748 mmHg 82%
    08:00 +11°C° 0 mm 4 m/S 748 mmHg 81%
    09:00 +13°C° 0 mm 4 m/S 748 mmHg 80%
    10:00 +14°C° 0 mm 5 m/S 747 mmHg 79%
    11:00 +14°C° 0,4 mm 5 m/S 747 mmHg 82%
    12:00 +14°C° 0,4 mm 4 m/S 747 mmHg 84%
    13:00 +15°C° 0,4 mm 4 m/S 747 mmHg 87%
    14:00 +14°C° 0,4 mm 4 m/S 747 mmHg 87%
    15:00 +14°C° 0,4 mm 4 m/S 747 mmHg 88%
    16:00 +14°C° 0,4 mm 4 m/S 747 mmHg 88%
    17:00 +14°C° 0 mm 4 m/S 747 mmHg 89%
    18:00 +13°C° 0 mm 4 m/S 747 mmHg 89%
    19:00 +12°C° 0 mm 4 m/S 747 mmHg 90%
    20:00 +12°C° 0 mm 4 m/S 747 mmHg 89%
    21:00 +11°C° 0 mm 4 m/S 747 mmHg 87%
    22:00 +11°C° 0 mm 4 m/S 748 mmHg 86%
    23:00 +10°C° 0 mm 4 m/S 748 mmHg 86%

    übermorgen, 22 Oktober, Sonntag

    Zeit Temperatur Niederschläge Wind Luftdruck Luftfeuchtigkeit
    00:00 +9°C° 0 mm 5 m/S 748 mmHg 85%
    01:00 +8°C° 0 mm 5 m/S 748 mmHg 85%
    02:00 +8°C° 0 mm 5 m/S 748 mmHg 84%
    03:00 +8°C° 0 mm 5 m/S 747 mmHg 84%
    04:00 +8°C° 0 mm 5 m/S 747 mmHg 84%
    05:00 +7°C° 0 mm 5 m/S 747 mmHg 84%
    06:00 +7°C° 0 mm 5 m/S 747 mmHg 84%
    07:00 +7°C° 0 mm 5 m/S 747 mmHg 84%
    08:00 +8°C° 0 mm 6 m/S 747 mmHg 81%
    09:00 +9°C° 0 mm 6 m/S 747 mmHg 77%
    10:00 +9°C° 0 mm 6 m/S 748 mmHg 74%
    11:00 +10°C° 0 mm 6 m/S 748 mmHg 72%
    12:00 +10°C° 0 mm 6 m/S 748 mmHg 71%
    13:00 +10°C° 0 mm 6 m/S 748 mmHg 69%
    14:00 +10°C° 0,1 mm 6 m/S 748 mmHg 70%
    15:00 +10°C° 0,1 mm 5 m/S 747 mmHg 72%
    16:00 +10°C° 0,1 mm 5 m/S 747 mmHg 73%
    17:00 +9°C° 0,1 mm 5 m/S 747 mmHg 76%
    18:00 +8°C° 0,1 mm 5 m/S 748 mmHg 80%
    19:00 +8°C° 0,1 mm 4 m/S 748 mmHg 83%
    20:00 +7°C° 0,1 mm 4 m/S 748 mmHg 85%
    21:00 +7°C° 0,1 mm 4 m/S 748 mmHg 86%
    22:00 +7°C° 0,1 mm 4 m/S 748 mmHg 87%
    23:00 +6°C° 0 mm 4 m/S 748 mmHg 88%

    23 Oktober, Montag

    Zeit Temperatur Niederschläge Wind Luftdruck Luftfeuchtigkeit
    00:00 +6°C° 0 mm 4 m/S 748 mmHg 90%
    01:00 +7°C° 0 mm 3 m/S 748 mmHg 92%
    02:00 +5°C° 0 mm 3 m/S 749 mmHg 92%
    03:00 +5°C° 0 mm 3 m/S 749 mmHg 92%
    04:00 +5°C° 0 mm 3 m/S 749 mmHg 93%
    05:00 +5°C° 0 mm 3 m/S 749 mmHg 93%
    06:00 +5°C° 0 mm 3 m/S 749 mmHg 94%
    07:00 +5°C° 0 mm 3 m/S 750 mmHg 95%
    08:00 +7°C° 0,1 mm 3 m/S 750 mmHg 93%
    09:00 +9°C° 0,1 mm 3 m/S 750 mmHg 91%
    10:00 +10°C° 0,1 mm 3 m/S 751 mmHg 90%
    11:00 +10°C° 0,1 mm 4 m/S 751 mmHg 88%
    12:00 +11°C° 0,1 mm 4 m/S 751 mmHg 85%
    13:00 +12°C° 0,1 mm 4 m/S 751 mmHg 83%
    14:00 +12°C° 0,1 mm 4 m/S 752 mmHg 83%
    15:00 +12°C° 0,1 mm 3 m/S 752 mmHg 82%
    16:00 +12°C° 0,1 mm 3 m/S 752 mmHg 82%
    17:00 +11°C° 0 mm 3 m/S 753 mmHg 85%
    18:00 +10°C° 0 mm 3 m/S 753 mmHg 89%
    19:00 +8°C° 0 mm 2 m/S 753 mmHg 92%
    20:00 +8°C° 0 mm 2 m/S 753 mmHg 92%
    21:00 +8°C° 0 mm 2 m/S 754 mmHg 93%
    22:00 +7°C° 0 mm 2 m/S 754 mmHg 93%
    23:00 +7°C° 0 mm 2 m/S 754 mmHg 93%

    24 Oktober, Dienstag

    Zeit Temperatur Niederschläge Wind Luftdruck Luftfeuchtigkeit
    00:00 +7°C° 0 mm 2 m/S 754 mmHg 93%
    01:00 +7°C° 0 mm 2 m/S 754 mmHg 94%
    02:00 +7°C° 0 mm 2 m/S 754 mmHg 94%
    03:00 +7°C° 0 mm 2 m/S 754 mmHg 94%
    04:00 +7°C° 0 mm 2 m/S 754 mmHg 94%
    05:00 +7°C° 0,2 mm 2 m/S 754 mmHg 94%
    06:00 +8°C° 0,2 mm 2 m/S 754 mmHg 94%
    07:00 +8°C° 0,2 mm 2 m/S 754 mmHg 94%
    08:00 +9°C° 0,3 mm 2 m/S 754 mmHg 94%
    09:00 +9°C° 0,3 mm 2 m/S 755 mmHg 93%
    10:00 +10°C° 0,3 mm 2 m/S 755 mmHg 93%
    11:00 +12°C° 0 mm 2 m/S 755 mmHg 91%
    12:00 +13°C° 0 mm 1 m/S 755 mmHg 90%
    13:00 +14°C° 0 mm 1 m/S 755 mmHg 88%
    14:00 +14°C° 0 mm 1 m/S 756 mmHg 89%
    15:00 +14°C° 0 mm 1 m/S 756 mmHg 90%
    16:00 +15°C° 0 mm 1 m/S 756 mmHg 90%
    17:00 +14°C° 0 mm 1 m/S 756 mmHg 92%
    18:00 +13°C° 0 mm 1 m/S 756 mmHg 93%
    19:00 +13°C° 0 mm 1 m/S 757 mmHg 95%
    20:00 +13°C° 0 mm 1 m/S 757 mmHg 95%
    21:00 +12°C° 0 mm 1 m/S 757 mmHg 95%
    22:00 +12°C° 0 mm 2 m/S 757 mmHg 96%
    23:00 +12°C° 0,3 mm 2 m/S 757 mmHg 96%

    25 Oktober, Mittwoch

    Zeit Temperatur Niederschläge Wind Luftdruck Luftfeuchtigkeit
    00:00 +13°C° 0,3 mm 2 m/S 758 mmHg 96%
    01:00 +13°C° 0,3 mm 2 m/S 758 mmHg 96%
    02:00 +13°C° 0,2 mm 2 m/S 758 mmHg 96%
    03:00 +13°C° 0,2 mm 2 m/S 758 mmHg 96%
    04:00 +13°C° 0,2 mm 2 m/S 758 mmHg 97%
    05:00 +13°C° 0,1 mm 2 m/S 758 mmHg 97%
    06:00 +13°C° 0,1 mm 2 m/S 758 mmHg 97%
    07:00 +13°C° 0,1 mm 2 m/S 758 mmHg 97%
    08:00 +14°C° 0 mm 2 m/S 759 mmHg 95%
    09:00 +15°C° 0 mm 2 m/S 759 mmHg 93%
    10:00 +16°C° 0 mm 2 m/S 759 mmHg 90%
    11:00 +17°C° 0 mm 2 m/S 759 mmHg 86%
    12:00 +17°C° 0 mm 2 m/S 759 mmHg 82%
    13:00 +18°C° 0 mm 3 m/S 759 mmHg 78%
    14:00 +18°C° 0 mm 2 m/S 759 mmHg 80%
    15:00 +18°C° 0 mm 2 m/S 759 mmHg 81%
    16:00 +18°C° 0 mm 1 m/S 759 mmHg 82%
    17:00 +18°C° 0 mm 1 m/S 760 mmHg 85%
    18:00 +16°C° 0 mm 1 m/S 760 mmHg 87%
    19:00 +15°C° 0 mm 1 m/S 760 mmHg 89%
    20:00 +15°C° 0 mm 1 m/S 760 mmHg 89%
    21:00 +15°C° 0 mm 1 m/S 760 mmHg 90%
    22:00 +15°C° 0 mm 1 m/S 761 mmHg 90%
    23:00 +14°C° 0 mm 2 m/S 761 mmHg 91%
    Mehr zeigen